Latest Weather Observations for Dunalley

IDT60801

Issued at 7:01 pm EST Monday 6 July 2015 (issued every 30 minutes, with the page automatically refreshed every 10 minutes)

About weather observations | Map of weather stations | Latest weather observations for TAS | Other Formats
Station Details ID: 094254 Name: DUNALLEY (STROUD POINT) Lat: -42.90 Lon: 147.79 Height: 12.43 m
Data from the previous 72 hours. | See also: Recent months at Dunalley
Date/Time
EST
Temp
°C
App
Temp
°C
Dew
Point
Rel
Hum
%
Delta-T
°C
Wind Press
QNH
hPa
Press
MSL
hPa
Rain
since 9 am
mm
Dir
 
Spd
km/h
Gust
km/h
Spd
kts
Gust
kts
06/07:00pm 5.8 2.9 2.6 80 1.3 SSE 7 9 4 5 1019.8 1019.9 0.0
06/06:30pm 5.8 2.8 2.1 77 1.5 S 7 11 4 6 1019.6 1019.7 0.0
06/06:00pm 6.5 2.8 2.2 74 1.8 S 11 15 6 8 1019.3 1019.4 0.0
06/05:30pm 6.5 1.2 1.8 72 1.9 S 19 24 10 13 1019.1 1019.2 0.0
06/05:00pm 6.8 1.2 1.3 68 2.2 SSW 20 28 11 15 1018.6 1018.7 0.0
06/04:30pm 6.9 3.0 1.0 66 2.3 S 11 15 6 8 1018.3 1018.4 0.0
06/04:00pm 7.3 1.9 1.4 66 2.4 SSE 19 26 10 14 1018.2 1018.3 0.0
06/03:30pm 7.4 2.1 2.1 69 2.2 SSE 19 22 10 12 1017.8 1017.9 0.0
06/03:00pm 7.6 4.6 1.9 67 2.3 SE 7 15 4 8 1017.6 1017.7 0.0
06/02:30pm 7.1 4.3 2.2 71 2.0 SE 6 6 3 3 1017.3 1017.4 0.0
06/02:00pm 7.5 5.5 2.4 70 2.1 SE 2 6 1 3 1017.2 1017.3 0.0
06/01:30pm 7.9 3.3 3.9 76 1.7 S 17 26 9 14 1017.3 1017.4 0.0
06/01:00pm 8.1 2.8 3.0 70 2.2 S 20 24 11 13 1017.2 1017.3 0.0
06/12:30pm 8.2 3.6 1.4 62 2.8 S 15 20 8 11 1017.3 1017.4 0.0
06/12:00pm 7.9 4.2 2.6 69 2.2 SSW 11 13 6 7 1017.5 1017.6 0.0
06/11:30am 8.0 3.7 3.3 72 2.0 SSE 15 20 8 11 1017.6 1017.7 0.0
06/11:00am 7.4 5.1 2.5 71 2.0 SSE 4 4 2 2 1017.7 1017.8 0.0
06/10:30am 7.4 4.6 3.3 75 1.7 SSE 7 9 4 5 1017.8 1017.9 0.0
06/10:00am 7.0 4.2 3.3 77 1.6 SSE 7 9 4 5 1017.5 1017.6 0.0
06/09:30am 6.6 2.3 3.2 79 1.4 SSE 15 20 8 11 1017.4 1017.5 0.0
06/09:00am 5.9 3.0 2.7 80 1.3 S 7 11 4 6 1017.1 1017.2 0.0
06/08:30am 6.2 3.5 2.7 78 1.4 S 6 9 3 5 1016.9 1017.0 0.0
06/08:00am 5.5 2.5 2.2 79 1.3 S 7 9 4 5 1016.7 1016.8 0.0
06/07:30am 6.3 2.2 2.2 75 1.7 S 13 19 7 10 1016.5 1016.6 0.0
06/07:00am 6.5 3.2 2.2 74 1.8 SSE 9 13 5 7 1016.3 1016.4 0.0
06/06:30am 6.7 3.7 2.2 73 1.8 S 7 9 4 5 1016.1 1016.2 0.0
06/06:00am 6.8 4.0 2.1 72 1.9 S 6 7 3 4 1015.8 1015.9 0.0
06/05:30am 6.9 3.5 2.0 71 2.0 SSE 9 13 5 7 1015.7 1015.8 0.0
06/05:00am 6.9 3.5 1.8 70 2.1 S 9 13 5 7 1015.5 1015.6 0.0
06/04:30am 7.1 3.9 3.0 75 1.7 S 9 15 5 8 1015.3 1015.4 0.0
06/04:00am 6.9 4.3 3.0 76 1.6 S 6 7 3 4 1015.1 1015.2 0.0
06/03:30am 6.7 4.8 3.1 78 1.5 S 2 4 1 2 1015.1 1015.2 0.0
06/03:00am 6.5 5.1 3.7 82 1.2 CALM 0 0 0 0 1015.3 1015.4 0.0
06/02:30am 6.2 4.9 4.2 87 0.9 CALM 0 0 0 0 1015.2 1015.3 0.0
06/02:00am 6.3 4.6 4.1 86 0.9 S 2 4 1 2 1015.0 1015.1 0.0
06/01:30am 6.3 4.3 4.3 87 0.9 S 4 6 2 3 1015.0 1015.1 0.0
06/01:00am 6.2 4.5 4.0 86 0.9 S 2 4 1 2 1015.0 1015.1 0.0
06/12:30am 6.8 5.2 4.3 84 1.1 S 2 7 1 4 1015.2 1015.3 0.0
06/12:00am 6.9 5.7 4.6 85 1.0 CALM 0 2 0 1 1015.4 1015.5 0.0
 
Date/Time
EST
Temp
°C
App
Temp
°C
Dew
Point
Rel
Hum
%
Delta-T
°C
Wind Press
QNH
hPa
Press
MSL
hPa
Rain
since 9 am
mm
Dir
 
Spd
km/h
Gust
km/h
Spd
kts
Gust
kts
05/11:30pm 7.1 5.2 4.8 85 1.0 S 4 6 2 3 1015.6 1015.7 0.0
05/11:00pm 7.1 5.2 4.8 85 1.0 S 4 4 2 2 1015.5 1015.6 0.0
05/10:30pm 7.0 5.8 4.7 85 1.0 CALM 0 6 0 3 1015.5 1015.6 0.0
05/10:00pm 7.1 5.6 4.8 85 1.0 S 2 4 1 2 1015.4 1015.5 0.0
05/09:30pm 7.3 4.8 5.0 85 1.0 S 7 11 4 6 1015.4 1015.5 0.0
05/09:00pm 6.9 4.5 4.2 83 1.2 S 6 7 3 4 1015.3 1015.4 0.0
05/08:30pm 7.3 5.3 4.6 83 1.2 S 4 6 2 3 1015.1 1015.2 0.0
05/08:00pm 7.5 5.6 5.0 84 1.1 S 4 6 2 3 1015.0 1015.1 0.0
05/07:30pm 7.8 5.3 4.9 82 1.3 S 7 9 4 5 1015.0 1015.1 0.0
05/07:00pm 7.6 6.4 4.4 80 1.4 CALM 0 0 0 0 1014.9 1015.0 0.0
05/06:30pm 7.8 5.9 4.7 81 1.4 S 4 6 2 3 1014.7 1014.8 0.0
05/06:00pm 8.1 5.6 5.0 81 1.4 S 7 9 4 5 1014.5 1014.6 0.0
05/05:30pm 8.2 4.6 5.0 80 1.4 S 13 15 7 8 1014.3 1014.4 0.0
05/05:00pm 8.3 4.5 5.6 83 1.2 SSW 15 17 8 9 1013.9 1014.0 0.0
05/04:30pm 8.6 4.7 5.4 80 1.4 WSW 15 19 8 10 1013.7 1013.8 0.0
05/04:00pm 8.9 5.7 5.1 77 1.7 WSW 11 13 6 7 1013.8 1013.9 0.0
05/03:30pm 9.1 6.6 4.5 73 2.0 W 7 13 4 7 1013.7 1013.8 0.0
05/03:00pm 9.5 7.0 4.5 71 2.2 W 7 9 4 5 1013.5 1013.6 0.0
05/02:30pm 9.7 6.8 4.5 70 2.3 W 9 11 5 6 1013.6 1013.7 0.0
05/02:00pm 9.4 6.1 4.8 73 2.1 W 11 13 6 7 1013.6 1013.7 0.0
05/01:30pm 9.3 6.0 4.7 73 2.0 W 11 13 6 7 1013.6 1013.7 0.0
05/01:00pm 9.5 6.7 5.1 74 2.0 W 9 11 5 6 1013.6 1013.7 0.0
05/12:30pm 10.0 6.7 4.6 69 2.4 W 11 13 6 7 1013.7 1013.8 0.0
05/12:00pm 9.4 6.5 4.6 72 2.1 W 9 13 5 7 1013.8 1013.9 0.0
05/11:30am 9.3 6.0 4.5 72 2.1 W 11 13 6 7 1014.0 1014.1 0.0
05/11:00am 9.1 6.1 3.9 70 2.3 W 9 11 5 6 1014.4 1014.5 0.0
05/10:30am 9.0 6.4 4.2 72 2.1 W 7 11 4 6 1014.5 1014.6 0.0
05/10:00am 8.6 4.4 4.0 73 2.0 W 15 19 8 10 1014.3 1014.4 0.0
05/09:30am 8.2 5.2 3.9 74 1.9 WNW 9 11 5 6 1014.3 1014.4 0.0
05/09:00am 7.4 4.7 3.6 77 1.6 WNW 7 9 4 5 1014.2 1014.3 0.0
05/08:30am 6.7 3.9 2.2 73 1.8 WNW 6 6 3 3 1014.2 1014.3 0.0
05/08:00am 6.8 3.4 2.1 72 1.9 WNW 9 13 5 7 1014.0 1014.1 0.0
05/07:30am 7.1 3.5 2.8 74 1.8 WNW 11 15 6 8 1013.6 1013.7 0.0
05/07:00am 7.3 3.6 2.2 70 2.1 WNW 11 15 6 8 1013.4 1013.5 0.0
05/06:30am 7.2 4.4 2.1 70 2.1 WNW 6 9 3 5 1013.4 1013.5 0.0
05/06:00am 7.8 4.4 1.9 66 2.4 WNW 9 17 5 9 1013.3 1013.4 0.0
05/05:30am 8.0 3.8 1.8 65 2.5 WNW 13 20 7 11 1013.1 1013.2 0.0
05/05:00am 7.5 4.1 1.8 67 2.3 WNW 9 15 5 8 1013.0 1013.1 0.0
05/04:30am 7.6 3.8 1.7 66 2.4 WNW 11 17 6 9 1013.0 1013.1 0.0
05/04:00am 7.6 4.2 1.7 66 2.4 WNW 9 13 5 7 1013.3 1013.4 0.0
05/03:30am 8.1 3.9 1.5 63 2.7 NW 13 19 7 10 1013.2 1013.3 0.0
05/03:00am 8.1 3.5 1.7 64 2.6 NW 15 20 8 11 1013.6 1013.7 0.0
05/02:30am 8.1 3.5 1.5 63 2.7 WNW 15 20 8 11 1013.6 1013.7 0.0
05/02:00am 8.3 3.4 1.7 63 2.7 WNW 17 24 9 13 1013.7 1013.8 0.0
05/01:30am 8.2 3.3 1.8 64 2.6 WNW 17 24 9 13 1013.5 1013.6 0.0
05/01:00am 6.5 3.1 1.8 72 1.9 W 9 13 5 7 1013.5 1013.6 0.0
05/12:30am 7.6 3.4 1.7 66 2.4 WNW 13 17 7 9 1013.4 1013.5 0.0
05/12:00am 7.7 3.9 1.5 65 2.5 NW 11 15 6 8 1013.5 1013.6 0.0
 
Date/Time
EST
Temp
°C
App
Temp
°C
Dew
Point
Rel
Hum
%
Delta-T
°C
Wind Press
QNH
hPa
Press
MSL
hPa
Rain
since 9 am
mm
Dir
 
Spd
km/h
Gust
km/h
Spd
kts
Gust
kts
04/11:30pm 7.6 3.4 1.7 66 2.4 WNW 13 19 7 10 1013.5 1013.6 0.0
04/11:00pm 7.5 3.5 2.6 71 2.0 W 13 19 7 10 1013.4 1013.5 0.0
04/10:30pm 7.7 4.0 2.4 69 2.2 WNW 11 15 6 8 1013.7 1013.8 0.0
04/10:00pm 8.0 3.5 2.3 67 2.4 W 15 20 8 11 1013.8 1013.9 0.0
04/09:30pm 7.4 3.0 2.9 73 1.9 W 15 17 8 9 1013.8 1013.9 0.0
04/09:00pm 7.8 3.9 3.3 73 1.9 W 13 19 7 10 1013.7 1013.8 0.0
04/08:30pm 8.6 3.4 2.6 66 2.5 WNW 19 24 10 13 1013.6 1013.7 0.0
04/08:00pm 8.4 3.1 2.0 64 2.7 WNW 19 22 10 12 1013.5 1013.6 0.0
04/07:30pm 9.7 4.7 1.6 57 3.4 WNW 17 26 9 14 1013.5 1013.6 0.0
04/07:00pm 9.5 3.4 3.0 64 2.8 W 24 28 13 15 1013.2 1013.3 0.0
04/06:30pm 9.1 3.9 3.3 67 2.5 W 20 24 11 13 1013.0 1013.1 0.0
04/06:00pm 9.8 4.1 2.9 62 3.0 W 22 30 12 16 1012.8 1012.9 0.0
04/05:30pm 9.6 4.5 4.0 68 2.5 WSW 20 26 11 14 1012.7 1012.8 0.0
04/05:00pm 9.8 6.1 4.2 68 2.5 W 13 20 7 11 1012.6 1012.7 0.0
04/04:30pm 10.2 7.4 3.3 62 3.0 W 7 11 4 6 1012.4 1012.5 0.0
04/04:00pm 10.8 3.7 3.4 60 3.2 WSW 30 39 16 21 1011.8 1011.9 0.0
04/03:37pm 10.7 1.1 3.5 61 3.2 WSW 43 61 23 33 1011.1 1011.2 0.0
04/03:30pm 10.9 0.7 3.0 58 3.4 WSW 46 61 25 33 1010.9 1011.0 0.0
04/03:00pm 11.2 2.3 3.3 58 3.5 WSW 39 46 21 25 1011.0 1011.1 0.0
04/02:30pm 11.5 4.0 3.3 57 3.6 WSW 32 46 17 25 1011.0 1011.1 0.0
04/02:00pm 11.6 4.7 4.6 62 3.2 SW 30 35 16 19 1010.9 1011.0 0.0
04/01:30pm 11.6 3.2 3.9 59 3.4 WSW 37 44 20 24 1010.4 1010.5 0.0
04/01:00pm 11.6 4.2 4.8 63 3.1 WSW 33 37 18 20 1010.3 1010.4 0.0
04/12:30pm 10.9 4.2 5.7 70 2.4 WSW 30 33 16 18 1010.2 1010.2 0.0
04/12:00pm 11.2 4.9 5.5 68 2.6 WSW 28 35 15 19 1010.4 1010.5 0.0
04/11:30am 12.0 5.3 5.6 65 3.0 WSW 30 37 16 20 1010.6 1010.7 0.0
04/11:00am 12.0 5.9 5.0 62 3.2 WSW 26 33 14 18 1010.8 1010.9 0.0
04/10:30am 12.2 6.5 6.7 69 2.6 WSW 26 32 14 17 1010.9 1011.0 0.0
04/10:00am 12.2 8.4 7.7 74 2.2 NW 17 20 9 11 1010.4 1010.5 0.0
04/09:30am 12.9 9.4 7.4 69 2.7 NNW 15 20 8 11 1010.2 1010.2 0.0
04/09:00am 11.5 9.1 7.2 75 2.1 NNW 9 11 5 6 1010.1 1010.1 0.0
04/08:30am 10.1 8.1 7.0 81 1.5 NNW 7 9 4 5 1009.8 1009.8 0.0
04/08:00am 10.1 8.1 7.0 81 1.5 NNW 7 11 4 6 1009.7 1009.7 0.0
04/07:30am 10.5 8.6 6.6 77 1.8 NNW 6 7 3 4 1009.4 1009.4 0.0
04/07:00am 8.9 6.7 6.2 83 1.2 NNW 7 9 4 5 1009.0 1009.0 0.0
04/06:30am 8.9 6.2 5.6 80 1.5 NNW 9 15 5 8 1009.0 1009.0 0.0
04/06:00am 11.1 7.8 6.6 74 2.1 NNW 13 22 7 12 1008.8 1008.8 0.0
04/05:30am 10.7 9.0 5.9 72 2.2 NNW 4 9 2 5 1008.6 1008.6 0.0
04/05:00am 11.0 8.6 5.1 67 2.7 N 7 13 4 7 1008.5 1008.5 0.0
04/04:30am 10.7 7.4 4.8 67 2.7 NNW 11 17 6 9 1008.3 1008.3 0.0
04/04:00am 11.2 7.5 4.4 63 3.1 NNW 13 20 7 11 1008.5 1008.5 0.0
04/03:30am 11.0 6.9 4.2 63 3.0 NNW 15 20 8 11 1009.0 1009.0 0.0
04/03:00am 10.7 7.3 4.0 63 3.0 NW 11 19 6 10 1009.5 1009.5 0.0
04/02:30am 10.8 6.2 3.8 62 3.1 NNW 17 26 9 14 1010.0 1010.0 0.0
04/02:00am 10.6 5.6 3.4 61 3.2 NW 19 28 10 15 1010.3 1010.4 0.0
04/01:30am 10.2 3.4 3.3 62 3.0 NW 28 41 15 22 1010.3 1010.4 0.0
04/01:00am 9.9 2.6 2.7 61 3.1 NW 30 43 16 23 1010.5 1010.6 0.0
04/12:30am 10.0 2.2 2.6 60 3.2 NW 33 48 18 26 1010.9 1011.0 0.0
04/12:00am 10.0 1.8 2.6 60 3.2 WNW 35 54 19 29 1011.4 1011.5 0.0
 
Date/Time
EST
Temp
°C
App
Temp
°C
Dew
Point
Rel
Hum
%
Delta-T
°C
Wind Press
QNH
hPa
Press
MSL
hPa
Rain
since 9 am
mm
Dir
 
Spd
km/h
Gust
km/h
Spd
kts
Gust
kts
03/11:57pm 10.0 2.4 2.6 60 3.2 NW 32 54 17 29 1011.6 1011.7 0.0
03/11:30pm 9.7 6.0 2.6 61 3.0 NNW 11 41 6 22 1012.2 1012.3 0.0
03/11:00pm 9.6 4.7 2.2 60 3.1 NNW 17 35 9 19 1012.5 1012.6 0.0
03/10:30pm 9.7 2.8 2.3 60 3.1 NW 28 43 15 23 1012.6 1012.7 0.0
03/10:00pm 9.4 2.5 2.3 61 3.0 NW 28 39 15 21 1012.9 1013.0 0.0
03/09:30pm 9.3 3.1 2.4 62 2.9 WNW 24 39 13 21 1013.5 1013.6 0.0
03/09:00pm 9.3 3.1 1.9 60 3.1 WNW 24 35 13 19 1013.7 1013.8 0.0
03/08:30pm 9.1 4.5 1.8 60 3.0 NW 15 22 8 12 1014.1 1014.2 0.0
03/08:00pm 9.2 3.3 1.9 60 3.0 WNW 22 33 12 18 1014.4 1014.5 0.0
03/07:30pm 9.4 2.0 1.8 59 3.2 WNW 30 41 16 22 1014.6 1014.7 0.0
03/07:02pm 9.8 2.8 1.9 58 3.3 NW 28 46 15 25 1014.6 1014.7 0.0

Other Formats:

Comma delimited format used in spreadsheet applications
http://www.bom.gov.au/fwo/IDT60801/IDT60801.94951.axf

JavaScript Object Notation format (JSON) in row-major order
http://www.bom.gov.au/fwo/IDT60801/IDT60801.94951.json